Location: Star Dogged Moon Observatory
(29.7756°N, 82.0783°W)
Time: 15:19:18
(UTC-04:00)

ARGOS - Visible Passes

Search period start: 20 June 2018 00:00
Search period end: 30 June 2018 00:00
Orbit: 821 x 834 km, 98.6° (Epoch: 20 June)

Date Brightness Start Highest point End Pass type
(mag) Time Alt. Az. Time Alt. Az. Time Alt. Az.
20 Jun 5.2 20:54:29 10° ENE 20:55:29 10° ENE 20:56:29 10° NE visible
20 Jun 3.2 22:32:46 37° S 22:35:00 76° WSW 22:40:26 10° NNW visible
21 Jun 3.1 22:13:56 32° SSE 22:16:27 71° ENE 22:21:51 10° N visible
21 Jun 5.7 23:56:39 10° W 23:57:03 10° W 23:57:26 10° W visible
22 Jun 3.6 21:55:07 25° SE 21:57:56 45° ENE 22:03:06 10° N visible
22 Jun 5.3 23:36:37 15° WSW 23:38:18 17° W 23:41:44 10° NW visible
23 Jun 4.2 21:36:17 17° ESE 21:39:29 30° ENE 21:44:09 10° NNE visible
23 Jun 4.8 23:17:48 22° SW 23:19:37 26° W 23:24:07 10° NW visible
24 Jun 4.7 21:17:28 11° ESE 21:21:05 20° ENE 21:24:53 10° NNE visible
24 Jun 4.1 22:58:58 30° SW 23:00:58 40° W 23:06:03 10° NNW visible
25 Jun 5.1 21:00:24 10° E 21:02:44 13° ENE 21:05:03 10° NE visible
25 Jun 3.4 22:40:09 35° S 22:42:21 63° WSW 22:47:45 10° NNW visible
26 Jun 3.1 22:21:20 34° SSE 22:23:47 84° ENE 22:29:14 10° N visible
27 Jun 3.4 22:02:31 27° SE 22:05:16 55° ENE 22:10:33 10° N visible
27 Jun 5.5 23:44:02 12° WSW 23:45:43 14° W 23:48:24 10° WNW visible
28 Jun 3.9 21:43:42 20° SE 21:46:47 35° ENE 21:51:41 10° N visible
28 Jun 5.0 23:25:12 19° WSW 23:27:01 22° W 23:31:08 10° NW visible
29 Jun 4.5 21:24:53 13° ESE 21:28:22 24° ENE 21:32:34 10° NNE visible
29 Jun 4.4 23:06:24 26° SW 23:08:21 34° W 23:13:14 10° NW visible
